Regional Weather Roundup
Issued by NWS

Home | Current Version | Previous Version | Text Only | Print | Product List | Glossary On
Versions: 1 2 3 4 5 6 7 8 9 10 11 12 13 14 15 16 17 18 19 20 21 22 23 24 25 26 27 28 29 30 31 32 33 34 35 36 37 38 39 40 41 42 43 44 45 46 47 48 49 50
000
ASUS43 KDTX 012310
RWRMI
MICHIGAN HOURLY REGIONAL WEATHER ROUNDUP
NATIONAL WEATHER SERVICE DETROIT/PONTIAC MI
700 PM EDT WED JUL 01 2015

NOTE: "FAIR" INDICATES FEW OR NO CLOUDS BELOW 12,000 FEET WITH NO
SIGNIFICANT WEATHER AND/OR OBSTRUCTION TO VISIBILITY.

MIZ047>049-052>055-059>063-066>070-074>076-081>083-020000-
SOUTHEAST LOWER MICHIGAN

CITY           SKY/WX    TMP DP  RH WIND       PRES   REMARKS
ADRIAN         MOSUNNY   71  54  54 N6        29.91R
ALMA           PTSUNNY   67  54  64 N5        29.92S
ANN ARBOR      MOSUNNY   70  56  61 N7        29.91S
BAD AXE        CLOUDY    65  58  78 CALM      29.92R
CARO           PTSUNNY   66  56  70 W3        29.92R
DETROIT CITY   PTSUNNY   70  54  56 N10       29.90R
DETROIT        PTSUNNY   71  55  56 NW7       29.91S
FLINT          CLOUDY    66  55  67 CALM      29.93S
GROSSE ILE     MOSUNNY   72  57  60 NW8       29.89S
HILLSDALE      MOSUNNY   69  51  52 W6        29.92S
HOWELL         MOSUNNY   65  57  73 NE3       29.92F

CITY           SKY/WX    TMP DP  RH WIND       PRES   REMARKS
JACKSON        PTSUNNY   66  54  65 N6        29.91S
LAMBERTVILLE   MOSUNNY   73  54  52 NW3       29.90S
LANSING        CLOUDY    67  51  56 N3        29.93S
LAPEER         CLOUDY    63  55  76 W5        29.93S
MASON          CLOUDY    65  51  60 CALM      29.92S
MONROE         MOSUNNY   71  59  66 N5        29.89S
MT. CLEMENS    PTSUNNY   67  59  73 NW9       29.90R
PONTIAC        PTSUNNY   65  56  72 NW10      29.92R
PORT HOPE        N/A     62  57  83 N5        29.91S
PORT HURON     CLOUDY    61  57  88 N8        29.92S
TRI CITIES     CLOUDY    68  55  63 W3        29.92S
MIDLAND        CLOUDY    68  55  64 NW6       29.91R
TROY           PTSUNNY   69  57  66 N7        29.93S
SAGINAW HB     CLOUDY    66  54  63 CALM      29.92R
$$
MIZ043>046-050>051-056>058-064>065-071>073-077>080-020000-
SOUTHWEST LOWER MICHIGAN

CITY           SKY/WX    TMP DP  RH WIND       PRES   REMARKS
BATTLE CREEK   PTSUNNY   67  53  61 NW10      29.94R
BENTON HARBOR  PTSUNNY   58  51  78 VRB7      29.96F
BIG RAPIDS     PTSUNNY   62  52  70 N6        29.94S
COLDWATER      PTSUNNY   67  51  55 W6        29.92S
FREMONT        FAIR      60  53  77 N6        29.96R
HOLLAND        CLOUDY    60  52  74 NW7       29.96F
GRAND RAPIDS   PTSUNNY   64  51  62 N7        29.94R
IONIA          CLOUDY    65  52  60 N5        29.92R
KALAMAZOO      PTSUNNY   64  52  64 NW10      29.95R
LUDINGTON      CLOUDY    60  53  77 N8        29.97S
MARSHALL       PTSUNNY   66  53  61 NW3       29.92S
MOUNT PLEASANT CLOUDY    67  53  62 NW5       29.92S
MUSKEGON       CLOUDY    62  52  69 N5        29.96S
SOUTH HAVEN    CLOUDY    57  51  80 N9G16     29.96F
$$
MIZ016>042-020000-
NORTHERN LOWER MICHIGAN

CITY           SKY/WX    TMP DP  RH WIND       PRES   REMARKS
ALPENA         CLOUDY    63  55  75 N13       29.94S
BEAVER ISLAND  MOSUNNY   61  47  60 NW8       29.98S
BELLAIRE       PTSUNNY   61  51  69 N5        29.97S
CADILLAC       CLOUDY    59  52  77 NW8       29.95F
CHARLEVOIX     MOSUNNY   60  52  73 NW7       30.00S
FRANKFORT      MOSUNNY   63  46  54 N5        29.98S
GAYLORD        CLOUDY    59  53  80 W7        29.96S
GRAYLING       CLOUDY    60  53  80 NW8       29.96F
HARBOR SPRINGS MOSUNNY   62  49  62 NW5       29.96S
HOUGHTON LAKE  CLOUDY    59  52  77 NW7       29.96R
MANISTEE       PTSUNNY  N/A N/A N/A W6        29.97F
OSCODA         CLOUDY    63  58  83 CALM      29.91S
PELLSTON       MOSUNNY   64  48  56 NW14      29.95S
ROGERS CITY    CLOUDY    62  53  71 NW8       29.95S
TRAVERSE CITY  CLOUDY    61  50  67 N8        29.96F
$$
MIZ007>008-015-020000-
EASTERN UPPER MICHIGAN

CITY           SKY/WX    TMP DP  RH WIND       PRES   REMARKS
KINROSS        SUNNY     61  45  55 NW14      29.95S
MACKINAC ISLAN MOSUNNY   61  50  67 N7        29.95R
NEWBERRY       MOSUNNY   58  45  61 NW9       29.98S
S. S. MARIE    SUNNY     58  44  60 NW15G24   29.95S
MUNISING         N/A     55  44  66 E3        30.01F
$$
MIZ004>006-011>014-085-020000-
CENTRAL UPPER MICHIGAN

CITY           SKY/WX    TMP DP  RH WIND       PRES   REMARKS
MANISTIQUE     PTSUNNY   59  42  54 N10       29.98S
ESCANABA       MOSUNNY   64  39  39 N8        29.99R
MENOMINEE      SUNNY     64  45  48 NE12      29.98R
SAWYER-GWINN   SUNNY     61  37  41 NE9       30.02S
$$
MIZ001>003-009>011-084-020000-
WESTERN UPPER MICHIGAN

CITY           SKY/WX    TMP DP  RH WIND       PRES   REMARKS
IRON MOUNTAIN  SUNNY     70  43  37 N7        29.98S
HOUGHTON       MOSUNNY   66  40  38 VRB5      30.01S
COPPER HARBOR    N/A     57  47  69 N3        30.01S
IRONWOOD       SUNNY     66  46  48 NE6       29.99S
$$

ABBREVIATIONS USED IN REMARKS
   TC - TEMPERATURE IN CELSIUS
  WCI - WIND CHILL INDEX
   HX - HEAT INDEX
  VSB - VISIBILITY



USA.gov is the U.S. government's official web portal to all federal, state and local government web resources and services.